Regional Weather Roundup
Issued by NWS

Home | Current Version | Previous Version | Graphics & Text | Print | Product List | Glossary On
Versions: 1 2 3 4 5 6 7 8 9 10 11 12 13 14 15 16 17 18 19 20 21 22 23 24 25 26 27 28 29 30 31 32 33 34 35 36 37 38 39 40 41 42 43 44 45 46 47 48 49 50
000
ASUS43 KOAX 291110
RWRNE

WEATHER ROUNDUP FOR NEBRASKA
NATIONAL WEATHER SERVICE OMAHA NE
600 AM CDT TUE JUL 29 2014

NOTES: SATELLITE DATA IS BEING USED TO AUGMENT CLOUD COVER ABOVE
       12000 FEET.
       "FAIR" INDICATES FEW OR NO CLOUDS BELOW 12,000 FEET WITH NO
       SIGNIFICANT WEATHER AND/OR OBSTRUCTIONS TO VISIBILITY.

  * THESE STATIONS DO NOT REPORT WEATHER SUCH AS RAIN...SNOW OR FOG.

NEZ001>004-019>022-054>056-291200-
NEBRASKA PANHANDLE

CITY           SKY/WX    TMP DP  RH WIND       PRES   REMARKS
SCOTTSBLUFF    CLEAR     59  57  93 E6        30.22R
ALLIANCE       CLEAR     58  56  93 E10       30.23R
CHADRON        PTCLDY    60  53  77 NE6       30.23R
KIMBALL        CLEAR     57  55  92 N6        30.23R
SIDNEY         CLEAR     56  52  86 NE5       30.22F
$$

NEZ057>060-069>072-079>082-291200-
SOUTHWEST NEBRASKA

CITY           SKY/WX    TMP DP  RH WIND       PRES   REMARKS
NORTH PLATTE   PTCLDY    57  55  93 E6        30.23S
IMPERIAL       CLEAR     59  56  89 E6        30.20S
LEXINGTON      PTCLDY    59  57  91 E6        30.24R
MCCOOK         CLEAR     60  55  83 E8        30.20S
OGALLALA       CLEAR     57  55  94 E7        30.22R
$$

NEZ005>010-023>029-035>040-094-291200-
NORTH CENTRAL NEBRASKA

CITY           SKY/WX    TMP DP  RH WIND       PRES   REMARKS
VALENTINE      CLEAR     55  52  89 NE6       30.25S
AINSWORTH      CLEAR     54  53  97 S3        30.25S
BROKEN BOW     LGT RAIN  61  57  87 SE5       30.24F
O`NEILL        CLEAR     53  50  90 CALM      30.24S
ORD            CLOUDY    60  58  92 CALM      30.23F
THEDFORD       MOCLDY    61  58  91 SE6       30.26F
$$

NEZ041-046>049-061>064-073>077-083>087-291200-
SOUTH CENTRAL NEBRASKA

CITY           SKY/WX    TMP DP  RH WIND       PRES   REMARKS
GRAND ISLAND   CLOUDY    64  60  87 SW3       30.24R
AURORA         CLOUDY    62  62 100 CALM      30.23R
HASTINGS       CLOUDY    64  56  75 CALM      30.23S
HEBRON         CLOUDY    64  57  77 CALM      30.23R
HOLDREGE       PTCLDY    59  56  89 E5        30.22S
KEARNEY *      CLOUDY    61  55  82 N6        30.24R
YORK           CLOUDY    59  59 100 W3        30.22S
$$

NEZ011>018-030>034-042>045-291200-
NORTHEAST NEBRASKA

CITY           SKY/WX    TMP DP  RH WIND       PRES   REMARKS
NORFOLK        CLEAR     53  51  93 CALM      30.22R
ALBION         CLEAR     52  50  93 NW3       30.24R
BLAIR          CLEAR     58  55  91 NW3       30.19R
COLUMBUS *     CLEAR     52  46  82 NW5       30.22S
FREMONT        CLEAR     56  54  93 W5        30.21R
TEKAMAH        CLEAR     55  52  89 NW3       30.19R
WAYNE          CLEAR     50  49  97 CALM      30.22R
$$

NEZ050>053-065>068-078-088>093-291200-
SOUTHEAST NEBRASKA

CITY           SKY/WX    TMP DP  RH WIND       PRES   REMARKS
LINCOLN        CLEAR     55  51  86 NW5       30.22S
OMAHA EPPLEY   CLEAR     56  54  93 NW5       30.19R
BEATRICE       MOCLDY    56  55  95 CALM      30.20S
FALLS CITY     CLEAR     54  52  93 N3        30.18R
NEBRASKA CITY  CLEAR     57  57 100 NW3       30.19S
PLATTSMOUTH    CLEAR     56  54  91 W3        30.20R
$$

NEZ044-045-051>053-067-291200-
OMAHA AREA

CITY           SKY/WX    TMP DP  RH WIND       PRES   REMARKS
OMAHA EPPLEY   CLEAR     56  54  93 NW5       30.19R
BLAIR          CLEAR     58  55  91 NW3       30.19R
FREMONT        CLEAR     56  54  93 W5        30.21R
MILLARD        CLEAR     59  56  91 CALM      30.20R
OFFUTT AFB     CLEAR     55  55  99 CALM      30.19R
PLATTSMOUTH    CLEAR     56  54  91 W3        30.20R
WAHOO          FAIR      56  54  91 NW3       30.21S
$$


USA.gov is the U.S. government's official web portal to all federal, state and local government web resources and services.